Time,TemperatureF,DewpointF,PressureIn,WindDirection,WindDirectionDegrees,WindSpeedMPH,WindSpeedGustMPH,Humidity,HourlyPrecipIn,Conditions,Clouds,dailyrainin,SoftwareType,DateUTC
2013-01-13 00:00:00,44.1,33.4,29.79,North,4,0.0,0.0,66,0.00,,,0.00,VWS V13.00,2013-01-13 05:00:00,
2013-01-13 00:01:00,44.1,33.4,29.79,North,351,0.0,0.0,66,0.00,,,0.00,VWS V13.00,2013-01-13 05:01:00,
2013-01-13 00:02:00,43.9,33.3,29.79,North,356,0.0,0.0,66,0.00,,,0.00,VWS V13.00,2013-01-13 05:02:00,
2013-01-13 00:07:00,43.7,33.5,29.79,North,4,0.0,0.0,67,0.00,,,0.00,VWS V13.00,2013-01-13 05:07:00,
2013-01-13 00:12:00,43.5,33.7,29.79,North,10,0.0,0.0,68,0.00,,,0.00,VWS V13.00,2013-01-13 05:12:00,
2013-01-13 00:17:00,43.3,33.5,29.79,North,351,0.0,0.0,68,0.00,,,0.00,VWS V13.00,2013-01-13 05:17:00,
2013-01-13 00:22:00,43.5,34.8,29.79,North,8,0.0,0.0,71,0.00,,,0.00,VWS V13.00,2013-01-13 05:22:00,
2013-01-13 00:27:00,43.9,35.1,29.82,NE,35,0.0,0.0,71,0.00,,,0.00,VWS V13.00,2013-01-13 05:27:00,
2013-01-13 00:32:00,44.2,35.5,29.82,NNW,337,0.0,0.0,71,0.00,,,0.00,VWS V13.00,2013-01-13 05:32:00,
2013-01-13 00:37:00,44.6,35.1,29.82,NE,47,0.0,0.0,69,0.00,,,0.00,VWS V13.00,2013-01-13 05:37:00,
2013-01-13 00:43:00,44.6,35.1,29.82,North,351,0.0,0.0,69,0.00,,,0.00,VWS V13.00,2013-01-13 05:43:00,
2013-01-13 00:48:00,44.6,34.7,29.82,North,351,0.0,0.0,68,0.00,,,0.00,VWS V13.00,2013-01-13 05:48:00,
2013-01-13 00:53:00,44.6,35.1,29.82,North,351,0.0,0.0,69,0.00,,,0.00,VWS V13.00,2013-01-13 05:53:00,
2013-01-13 00:58:00,44.2,34.4,29.82,NW,319,0.0,0.0,68,0.00,,,0.00,VWS V13.00,2013-01-13 05:58:00,
2013-01-13 01:03:00,44.2,35.1,29.82,ENE,76,0.0,0.0,70,0.00,,,0.00,VWS V13.00,2013-01-13 06:03:00,
2013-01-13 01:08:00,44.2,34.7,29.82,NE,41,0.0,0.0,69,0.00,,,0.00,VWS V13.00,2013-01-13 06:08:00,
2013-01-13 01:13:00,44.2,35.5,29.82,NE,47,0.0,0.0,71,0.00,,,0.00,VWS V13.00,2013-01-13 06:13:00,
2013-01-13 01:18:00,45.1,36.3,29.82,NE,47,0.0,0.0,71,0.00,,,0.00,VWS V13.00,2013-01-13 06:18:00,
2013-01-13 01:23:00,45.3,36.1,29.82,NE,36,0.0,0.0,70,0.00,,,0.00,VWS V13.00,2013-01-13 06:23:00,
2013-01-13 01:28:00,45.3,36.1,29.82,North,351,0.0,0.0,70,0.00,,,0.00,VWS V13.00,2013-01-13 06:28:00,
2013-01-13 01:33:00,45.5,35.9,29.82,North,4,0.0,0.0,69,0.00,,,0.00,VWS V13.00,2013-01-13 06:33:00,
2013-01-13 01:38:00,46.0,36.8,29.82,North,351,0.0,0.0,70,0.00,,,0.00,VWS V13.00,2013-01-13 06:38:00,
2013-01-13 01:43:00,46.8,37.5,29.82,NNW,340,0.0,3.6,70,0.00,,,0.00,VWS V13.00,2013-01-13 06:43:00,
2013-01-13 01:48:00,46.0,35.3,29.82,NNW,340,0.0,3.6,66,0.00,,,0.00,VWS V13.00,2013-01-13 06:48:00,
2013-01-13 01:53:00,45.1,34.1,29.82,NE,37,0.0,3.6,65,0.00,,,0.00,VWS V13.00,2013-01-13 06:53:00,
2013-01-13 01:58:00,44.8,35.6,29.85,NE,46,0.0,0.0,70,0.00,,,0.00,VWS V13.00,2013-01-13 06:58:00,
2013-01-13 02:03:00,44.8,36.7,29.85,NNE,21,0.0,0.0,73,0.00,,,0.00,VWS V13.00,2013-01-13 07:03:00,
2013-01-13 02:08:00,44.8,37.0,29.85,NE,34,0.0,0.0,74,0.00,,,0.00,VWS V13.00,2013-01-13 07:08:00,
2013-01-13 02:13:00,44.2,36.2,29.85,NNE,33,0.0,0.0,73,0.00,,,0.00,VWS V13.00,2013-01-13 07:13:00,
2013-01-13 02:18:00,44.1,36.7,29.85,NE,35,0.0,0.0,75,0.00,,,0.00,VWS V13.00,2013-01-13 07:18:00,
2013-01-13 02:23:00,44.2,37.2,29.85,NE,35,0.0,0.0,76,0.00,,,0.00,VWS V13.00,2013-01-13 07:23:00,
2013-01-13 02:28:00,44.6,38.2,29.85,NE,36,0.0,0.0,78,0.00,,,0.00,VWS V13.00,2013-01-13 07:28:00,
2013-01-13 02:33:00,45.0,39.2,29.85,NE,35,0.0,0.0,80,0.00,,,0.00,VWS V13.00,2013-01-13 07:33:00,
2013-01-13 02:38:00,44.6,37.5,29.85,NE,35,0.0,0.0,76,0.00,,,0.00,VWS V13.00,2013-01-13 07:38:00,
2013-01-13 02:43:00,44.2,37.5,29.85,NE,44,0.0,0.0,77,0.00,,,0.00,VWS V13.00,2013-01-13 07:43:00,
2013-01-13 02:48:00,44.1,37.3,29.85,North,3,0.0,0.0,77,0.00,,,0.00,VWS V13.00,2013-01-13 07:48:00,
2013-01-13 02:53:00,44.4,39.0,29.85,North,3,0.0,0.0,81,0.00,,,0.00,VWS V13.00,2013-01-13 07:53:00,
2013-01-13 02:58:00,44.2,38.8,29.82,NE,53,0.0,0.0,81,0.00,,,0.00,VWS V13.00,2013-01-13 07:58:00,
2013-01-13 03:03:00,44.1,38.6,29.82,NE,54,0.0,0.0,81,0.00,,,0.00,VWS V13.00,2013-01-13 08:03:00,
2013-01-13 03:08:00,44.2,39.1,29.82,NNW,338,0.0,0.0,82,0.00,,,0.00,VWS V13.00,2013-01-13 08:08:00,
2013-01-13 03:13:00,43.7,37.6,29.82,NNW,338,0.0,0.0,79,0.00,,,0.00,VWS V13.00,2013-01-13 08:13:00,
2013-01-13 03:18:00,42.8,36.1,29.82,NNE,21,0.0,0.0,77,0.00,,,0.00,VWS V13.00,2013-01-13 08:18:00,
2013-01-13 03:23:00,43.0,37.2,29.82,NNE,21,0.0,0.0,80,0.00,,,0.00,VWS V13.00,2013-01-13 08:23:00,
2013-01-13 03:28:00,43.3,38.5,29.82,NNE,22,0.0,0.0,83,0.00,,,0.00,VWS V13.00,2013-01-13 08:28:00,
2013-01-13 03:33:00,43.3,38.2,29.82,WSW,243,0.0,0.0,82,0.00,,,0.00,VWS V13.00,2013-01-13 08:33:00,
2013-01-13 03:38:00,43.0,37.9,29.82,North,351,0.0,0.0,82,0.00,,,0.00,VWS V13.00,2013-01-13 08:38:00,
2013-01-13 03:43:00,42.6,37.2,29.82,NNW,332,0.0,0.0,81,0.00,,,0.00,VWS V13.00,2013-01-13 08:43:00,
2013-01-13 03:48:00,41.9,35.9,29.82,NNW,336,0.0,0.0,79,0.00,,,0.00,VWS V13.00,2013-01-13 08:48:00,
2013-01-13 03:54:00,42.3,37.2,29.82,North,351,0.0,0.0,82,0.00,,,0.00,VWS V13.00,2013-01-13 08:54:00,
2013-01-13 03:59:00,42.3,37.5,29.82,NNW,334,0.0,0.0,83,0.00,,,0.00,VWS V13.00,2013-01-13 08:59:00,
2013-01-13 04:04:00,42.3,37.8,29.82,North,351,0.0,0.0,84,0.00,,,0.00,VWS V13.00,2013-01-13 09:04:00,
2013-01-13 04:09:00,42.3,37.8,29.82,North,351,0.0,0.0,84,0.00,,,0.00,VWS V13.00,2013-01-13 09:09:00,
2013-01-13 04:14:00,41.5,36.8,29.82,North,2,0.0,0.0,83,0.00,,,0.00,VWS V13.00,2013-01-13 09:14:00,
2013-01-13 04:19:00,41.4,37.2,29.82,North,2,0.0,0.0,85,0.00,,,0.00,VWS V13.00,2013-01-13 09:19:00,
2013-01-13 04:24:00,41.5,37.7,29.82,North,2,0.0,0.0,86,0.00,,,0.00,VWS V13.00,2013-01-13 09:24:00,
2013-01-13 04:29:00,41.0,37.1,29.82,North,2,0.0,0.0,86,0.00,,,0.00,VWS V13.00,2013-01-13 09:29:00,
2013-01-13 04:34:00,41.5,37.7,29.82,North,356,0.0,0.0,86,0.00,,,0.00,VWS V13.00,2013-01-13 09:34:00,
2013-01-13 04:39:00,41.4,37.8,29.82,NE,38,0.0,0.0,87,0.00,,,0.00,VWS V13.00,2013-01-13 09:39:00,
2013-01-13 04:44:00,40.6,36.8,29.82,NE,48,0.0,0.0,86,0.00,,,0.00,VWS V13.00,2013-01-13 09:44:00,
2013-01-13 04:49:00,41.0,37.1,29.82,NE,47,0.0,0.0,86,0.00,,,0.00,VWS V13.00,2013-01-13 09:49:00,
2013-01-13 04:54:00,41.2,37.6,29.82,NE,47,0.0,0.0,87,0.00,,,0.00,VWS V13.00,2013-01-13 09:54:00,
2013-01-13 04:59:00,40.8,37.3,29.82,NE,46,0.0,0.0,87,0.00,,,0.00,VWS V13.00,2013-01-13 09:59:00,
2013-01-13 05:04:00,40.5,36.9,29.82,NE,48,0.0,0.0,87,0.00,,,0.00,VWS V13.00,2013-01-13 10:04:00,
2013-01-13 05:09:00,39.9,36.4,29.82,NE,45,0.0,0.0,87,0.00,,,0.00,VWS V13.00,2013-01-13 10:09:00,
2013-01-13 05:14:00,40.6,37.4,29.79,NE,47,0.0,0.0,88,0.00,,,0.00,VWS V13.00,2013-01-13 10:14:00,
2013-01-13 05:19:00,41.4,38.7,29.79,NE,46,0.0,0.0,90,0.00,,,0.00,VWS V13.00,2013-01-13 10:19:00,
2013-01-13 05:24:00,40.5,37.5,29.79,NE,46,0.0,0.0,89,0.00,,,0.00,VWS V13.00,2013-01-13 10:24:00,
2013-01-13 05:29:00,40.5,37.5,29.79,SSW,196,0.0,0.0,89,0.00,,,0.00,VWS V13.00,2013-01-13 10:29:00,
2013-01-13 05:34:00,39.7,36.2,29.79,NNE,29,0.0,0.0,87,0.00,,,0.00,VWS V13.00,2013-01-13 10:34:00,
2013-01-13 05:39:00,39.9,36.7,29.79,NNE,30,0.0,0.0,88,0.00,,,0.00,VWS V13.00,2013-01-13 10:39:00,
2013-01-13 05:44:00,40.3,37.0,29.79,NNE,29,0.0,0.0,88,0.00,,,0.00,VWS V13.00,2013-01-13 10:44:00,
2013-01-13 05:49:00,40.6,37.9,29.79,NNE,30,0.0,0.0,90,0.00,,,0.00,VWS V13.00,2013-01-13 10:49:00,
2013-01-13 05:54:00,40.6,37.9,29.79,NNE,29,0.0,0.0,90,0.00,,,0.00,VWS V13.00,2013-01-13 10:54:00,
2013-01-13 05:59:00,40.3,37.6,29.79,NNE,30,0.0,0.0,90,0.00,,,0.00,VWS V13.00,2013-01-13 10:59:00,
2013-01-13 06:04:00,39.9,37.0,29.79,NNE,31,0.0,0.0,89,0.00,,,0.00,VWS V13.00,2013-01-13 11:04:00,
2013-01-13 06:09:00,39.7,36.8,29.79,NNE,29,0.0,0.0,89,0.00,,,0.00,VWS V13.00,2013-01-13 11:09:00,
2013-01-13 06:14:00,39.4,36.1,29.79,NNE,30,0.0,0.0,88,0.00,,,0.00,VWS V13.00,2013-01-13 11:14:00,
2013-01-13 06:19:00,39.4,36.1,29.79,NNE,30,0.0,0.0,88,0.00,,,0.00,VWS V13.00,2013-01-13 11:19:00,
2013-01-13 06:24:00,39.7,36.8,29.79,NNW,343,0.0,0.0,89,0.00,,,0.00,VWS V13.00,2013-01-13 11:24:00,
2013-01-13 06:29:00,39.7,37.0,29.79,NNW,343,0.0,0.0,90,0.00,,,0.00,VWS V13.00,2013-01-13 11:29:00,
2013-01-13 06:34:00,39.6,36.9,29.79,NNW,343,0.0,0.0,90,0.00,,,0.00,VWS V13.00,2013-01-13 11:34:00,
2013-01-13 06:39:00,39.6,37.2,29.79,NNW,343,0.0,0.0,91,0.00,,,0.00,VWS V13.00,2013-01-13 11:39:00,
2013-01-13 06:44:00,39.6,37.2,29.79,NNW,343,0.0,0.0,91,0.00,,,0.00,VWS V13.00,2013-01-13 11:44:00,
2013-01-13 06:49:00,39.4,37.0,29.79,NNW,343,0.0,0.0,91,0.00,,,0.00,VWS V13.00,2013-01-13 11:49:00,
2013-01-13 06:54:00,39.4,37.2,29.79,NNW,343,0.0,0.0,92,0.00,,,0.00,VWS V13.00,2013-01-13 11:54:00,
2013-01-13 06:59:00,39.2,37.1,29.79,NNW,343,0.0,0.0,92,0.00,,,0.00,VWS V13.00,2013-01-13 11:59:00,
2013-01-13 07:04:00,39.2,37.1,29.79,NNW,343,0.0,0.0,92,0.00,,,0.00,VWS V13.00,2013-01-13 12:04:00,
2013-01-13 07:09:00,39.7,37.9,29.79,NNW,343,0.0,0.0,93,0.00,,,0.00,VWS V13.00,2013-01-13 12:09:00,
2013-01-13 07:14:00,39.9,38.1,29.79,NNW,343,0.0,0.0,93,0.00,,,0.00,VWS V13.00,2013-01-13 12:14:00,
2013-01-13 07:19:00,40.5,38.9,29.79,NNW,343,0.0,0.0,94,0.00,,,0.00,VWS V13.00,2013-01-13 12:19:00,
2013-01-13 07:24:00,40.3,38.7,29.79,NNW,343,0.0,0.0,94,0.00,,,0.00,VWS V13.00,2013-01-13 12:24:00,
2013-01-13 07:29:00,39.2,36.8,29.79,North,8,0.0,0.0,91,0.00,,,0.00,VWS V13.00,2013-01-13 12:29:00,
2013-01-13 07:34:00,39.7,37.3,29.79,North,8,0.0,0.0,91,0.00,,,0.00,VWS V13.00,2013-01-13 12:34:00,
2013-01-13 07:39:00,40.3,37.9,29.79,North,8,0.0,0.0,91,0.00,,,0.00,VWS V13.00,2013-01-13 12:39:00,
2013-01-13 07:44:00,40.5,38.0,29.79,North,11,0.0,0.0,91,0.00,,,0.00,VWS V13.00,2013-01-13 12:44:00,
2013-01-13 07:49:00,40.5,37.2,29.79,North,11,0.0,0.0,88,0.00,,,0.00,VWS V13.00,2013-01-13 12:49:00,
2013-01-13 07:54:00,41.5,38.3,29.76,NNW,334,0.0,0.0,88,0.00,,,0.00,VWS V13.00,2013-01-13 12:54:00,
2013-01-13 07:59:00,41.9,38.6,29.76,NNW,335,0.0,0.0,88,0.00,,,0.00,VWS V13.00,2013-01-13 12:59:00,
2013-01-13 08:04:00,41.7,37.8,29.76,ENE,59,0.0,0.0,86,0.00,,,0.00,VWS V13.00,2013-01-13 13:04:00,
2013-01-13 08:09:00,42.1,37.3,29.76,NW,320,0.0,0.0,83,0.00,,,0.00,VWS V13.00,2013-01-13 13:09:00,
2013-01-13 08:14:00,42.8,37.4,29.76,NNW,346,0.0,0.0,81,0.00,,,0.00,VWS V13.00,2013-01-13 13:14:00,
2013-01-13 08:19:00,42.8,36.1,29.76,North,11,0.0,0.0,77,0.00,,,0.00,VWS V13.00,2013-01-13 13:19:00,
2013-01-13 08:24:00,42.3,34.9,29.76,SW,223,0.0,0.0,75,0.00,,,0.00,VWS V13.00,2013-01-13 13:24:00,
2013-01-13 08:30:00,41.5,33.9,29.76,ENE,66,0.0,0.0,74,0.00,,,0.00,VWS V13.00,2013-01-13 13:30:00,
2013-01-13 08:35:00,42.3,34.9,29.76,NE,37,0.0,0.0,75,0.00,,,0.00,VWS V13.00,2013-01-13 13:35:00,
2013-01-13 08:40:00,43.3,35.3,29.73,North,6,0.0,0.0,73,0.00,,,0.00,VWS V13.00,2013-01-13 13:40:00,
2013-01-13 08:45:00,45.0,36.1,29.73,SSW,201,0.0,0.0,71,0.00,,,0.00,VWS V13.00,2013-01-13 13:45:00,
2013-01-13 08:50:00,45.1,35.2,29.73,NW,325,0.0,0.0,68,0.00,,,0.00,VWS V13.00,2013-01-13 13:50:00,
2013-01-13 08:55:00,45.0,33.9,29.76,WNW,294,0.0,0.0,65,0.00,,,0.00,VWS V13.00,2013-01-13 13:55:00,
2013-01-13 09:00:00,45.5,34.4,29.76,SW,227,0.0,0.0,65,0.00,,,0.00,VWS V13.00,2013-01-13 14:00:00,
2013-01-13 09:05:00,46.0,32.1,29.76,North,351,0.0,0.0,58,0.00,,,0.00,VWS V13.00,2013-01-13 14:05:00,
2013-01-13 09:10:00,48.6,33.1,29.76,WSW,239,0.0,6.3,55,0.00,,,0.00,VWS V13.00,2013-01-13 14:10:00,
2013-01-13 09:15:00,50.0,32.6,29.76,SSE,147,0.0,6.3,51,0.00,,,0.00,VWS V13.00,2013-01-13 14:15:00,
2013-01-13 09:20:00,50.4,32.4,29.76,SE,135,0.0,0.0,50,0.00,,,0.00,VWS V13.00,2013-01-13 14:20:00,
2013-01-13 09:25:00,51.6,33.1,29.76,WNW,294,0.0,3.6,49,0.00,,,0.00,VWS V13.00,2013-01-13 14:25:00,
2013-01-13 09:30:00,52.7,32.5,29.76,SSE,165,0.0,5.8,46,0.00,,,0.00,VWS V13.00,2013-01-13 14:30:00,
2013-01-13 09:35:00,53.4,32.6,29.76,SW,229,0.0,5.8,45,0.00,,,0.00,VWS V13.00,2013-01-13 14:35:00,
2013-01-13 09:40:00,54.1,32.2,29.73,SE,135,0.0,13.0,43,0.00,,,0.00,VWS V13.00,2013-01-13 14:40:00,
2013-01-13 09:45:00,53.8,31.8,29.73,SE,129,0.0,13.0,43,0.00,,,0.00,VWS V13.00,2013-01-13 14:45:00,
2013-01-13 09:50:00,53.4,31.5,29.73,SE,132,0.0,13.0,43,0.00,,,0.00,VWS V13.00,2013-01-13 14:50:00,
2013-01-13 09:55:00,52.3,32.2,29.73,SSE,157,0.0,13.0,46,0.00,,,0.00,VWS V13.00,2013-01-13 14:55:00,
2013-01-13 10:00:00,52.5,32.3,29.73,SSE,156,0.0,7.8,46,0.00,,,0.00,VWS V13.00,2013-01-13 15:00:00,
2013-01-13 10:05:00,52.7,31.4,29.73,SSE,164,0.0,8.3,44,0.00,,,0.00,VWS V13.00,2013-01-13 15:05:00,
2013-01-13 10:10:00,51.3,31.2,29.73,NNW,341,3.6,8.3,46,0.00,,,0.00,VWS V13.00,2013-01-13 15:10:00,
2013-01-13 10:15:00,52.0,32.4,29.73,SSE,164,2.7,12.5,47,0.00,,,0.00,VWS V13.00,2013-01-13 15:15:00,
2013-01-13 10:20:00,52.5,33.4,29.73,SSE,156,0.0,5.8,48,0.00,,,0.00,VWS V13.00,2013-01-13 15:20:00,
2013-01-13 10:25:00,53.1,33.4,29.73,South,182,0.0,6.3,47,0.00,,,0.00,VWS V13.00,2013-01-13 15:25:00,
2013-01-13 10:30:00,52.7,35.6,29.73,South,179,3.6,6.3,52,0.00,,,0.00,VWS V13.00,2013-01-13 15:30:00,
2013-01-13 10:35:00,52.2,36.5,29.73,NNE,19,2.7,6.7,55,0.00,,,0.00,VWS V13.00,2013-01-13 15:35:00,
2013-01-13 10:40:00,52.2,38.7,29.73,SSW,199,0.0,3.1,60,0.00,,,0.00,VWS V13.00,2013-01-13 15:40:00,
2013-01-13 10:45:00,52.7,38.8,29.73,WSW,257,0.0,9.6,59,0.00,,,0.00,VWS V13.00,2013-01-13 15:45:00,
2013-01-13 10:50:00,53.1,39.1,29.73,WSW,258,3.6,9.6,59,0.00,,,0.00,VWS V13.00,2013-01-13 15:50:00,
2013-01-13 10:55:00,53.1,38.7,29.73,SSE,147,0.0,11.6,58,0.00,,,0.00,VWS V13.00,2013-01-13 15:55:00,
2013-01-13 11:00:00,52.7,38.8,29.73,SSE,153,0.0,4.0,59,0.00,,,0.00,VWS V13.00,2013-01-13 16:00:00,
2013-01-13 11:05:00,53.1,39.1,29.73,SE,128,0.0,4.5,59,0.00,,,0.00,VWS V13.00,2013-01-13 16:05:00,
2013-01-13 11:10:00,53.2,38.9,29.70,South,185,2.7,13.0,58,0.00,,,0.00,VWS V13.00,2013-01-13 16:10:00,
2013-01-13 11:16:00,53.8,38.9,29.70,SSW,205,0.0,13.0,57,0.00,,,0.00,VWS V13.00,2013-01-13 16:16:00,
2013-01-13 11:21:00,53.4,39.0,29.70,East,95,0.0,10.1,58,0.00,,,0.00,VWS V13.00,2013-01-13 16:21:00,
2013-01-13 11:26:00,53.6,39.6,29.70,ENE,62,0.0,10.1,59,0.00,,,0.00,VWS V13.00,2013-01-13 16:26:00,
2013-01-13 11:31:00,53.6,40.1,29.70,West,266,0.0,10.1,60,0.00,,,0.00,VWS V13.00,2013-01-13 16:31:00,
2013-01-13 11:36:00,54.1,40.6,29.70,SSE,148,2.7,11.2,60,0.00,,,0.00,VWS V13.00,2013-01-13 16:36:00,
2013-01-13 11:41:00,54.3,40.3,29.70,SSE,152,5.8,8.3,59,0.00,,,0.00,VWS V13.00,2013-01-13 16:41:00,
2013-01-13 11:46:00,54.1,41.0,29.70,SE,125,0.0,8.3,61,0.00,,,0.00,VWS V13.00,2013-01-13 16:46:00,
2013-01-13 11:51:00,54.1,41.4,29.70,WSW,254,4.9,11.0,62,0.00,,,0.00,VWS V13.00,2013-01-13 16:51:00,
2013-01-13 11:56:00,54.0,42.1,29.70,WSW,245,8.3,12.1,64,0.00,,,0.00,VWS V13.00,2013-01-13 16:56:00,
2013-01-13 12:01:00,54.1,42.2,29.70,SE,144,2.7,12.5,64,0.00,,,0.00,VWS V13.00,2013-01-13 17:01:00,
2013-01-13 12:06:00,53.8,41.9,29.70,SSW,194,6.3,12.5,64,0.00,,,0.00,VWS V13.00,2013-01-13 17:06:00,
2013-01-13 12:11:00,54.0,42.1,29.67,SSE,151,5.8,13.9,64,0.00,,,0.00,VWS V13.00,2013-01-13 17:11:00,
2013-01-13 12:16:00,53.8,42.3,29.67,ESE,120,0.0,13.9,65,0.00,,,0.00,VWS V13.00,2013-01-13 17:16:00,
2013-01-13 12:21:00,54.0,42.5,29.67,SSE,166,0.0,8.3,65,0.00,,,0.00,VWS V13.00,2013-01-13 17:21:00,
2013-01-13 12:26:00,54.0,42.1,29.67,South,169,0.0,8.7,64,0.00,,,0.00,VWS V13.00,2013-01-13 17:26:00,
2013-01-13 12:31:00,53.8,41.9,29.67,South,188,0.0,8.7,64,0.00,,,0.00,VWS V13.00,2013-01-13 17:31:00,
2013-01-13 12:36:00,54.5,43.8,29.67,SE,126,4.0,16.3,67,0.00,,,0.00,VWS V13.00,2013-01-13 17:36:00,
2013-01-13 12:41:00,55.8,44.2,29.64,South,171,3.6,7.8,65,0.00,,,0.00,VWS V13.00,2013-01-13 17:41:00,
2013-01-13 12:46:00,55.8,43.0,29.64,WSW,250,4.5,8.7,62,0.00,,,0.00,VWS V13.00,2013-01-13 17:46:00,
2013-01-13 12:51:00,55.2,42.9,29.64,West,266,5.4,12.5,63,0.00,,,0.00,VWS V13.00,2013-01-13 17:51:00,
2013-01-13 12:56:00,54.7,43.2,29.64,East,85,0.0,12.5,65,0.00,,,0.00,VWS V13.00,2013-01-13 17:56:00,
2013-01-13 13:01:00,54.5,43.0,29.64,East,89,0.0,5.8,65,0.00,,,0.00,VWS V13.00,2013-01-13 18:01:00,
2013-01-13 13:06:00,54.1,41.8,29.64,SSE,155,0.0,5.8,63,0.00,,,0.00,VWS V13.00,2013-01-13 18:06:00,
2013-01-13 13:11:00,54.1,43.4,29.64,South,176,0.0,14.8,67,0.00,,,0.00,VWS V13.00,2013-01-13 18:11:00,
2013-01-13 13:16:00,55.0,44.3,29.64,SSE,166,3.1,14.8,67,0.00,,,0.00,VWS V13.00,2013-01-13 18:16:00,
2013-01-13 13:21:00,55.9,44.0,29.64,WSW,253,4.0,6.9,64,0.00,,,0.00,VWS V13.00,2013-01-13 18:21:00,
2013-01-13 13:26:00,56.7,43.4,29.64,South,181,3.1,6.9,61,0.00,,,0.00,VWS V13.00,2013-01-13 18:26:00,
2013-01-13 13:31:00,56.7,42.1,29.64,ESE,119,0.0,8.7,58,0.00,,,0.00,VWS V13.00,2013-01-13 18:31:00,
2013-01-13 13:36:00,56.5,42.8,29.64,ENE,63,0.0,8.7,60,0.00,,,0.00,VWS V13.00,2013-01-13 18:36:00,
2013-01-13 13:41:00,55.2,42.4,29.61,SSE,147,2.7,6.3,62,0.00,,,0.00,VWS V13.00,2013-01-13 18:41:00,
2013-01-13 13:46:00,54.5,43.4,29.61,SSE,149,3.6,6.7,66,0.00,,,0.00,VWS V13.00,2013-01-13 18:46:00,
2013-01-13 13:51:00,54.7,44.3,29.61,South,174,3.1,6.7,68,0.00,,,0.00,VWS V13.00,2013-01-13 18:51:00,
2013-01-13 13:56:00,55.6,44.4,29.61,South,172,0.0,6.7,66,0.00,,,0.00,VWS V13.00,2013-01-13 18:56:00,
2013-01-13 14:01:00,56.3,44.3,29.61,East,101,2.7,6.9,64,0.00,,,0.00,VWS V13.00,2013-01-13 19:01:00,
2013-01-13 14:06:00,55.9,43.5,29.61,SSE,147,0.0,10.5,63,0.00,,,0.00,VWS V13.00,2013-01-13 19:06:00,
2013-01-13 14:11:00,55.9,44.4,29.61,ESE,121,0.0,10.5,65,0.00,,,0.00,VWS V13.00,2013-01-13 19:11:00,
2013-01-13 14:16:00,56.3,44.3,29.61,SW,235,9.2,11.0,64,0.00,,,0.00,VWS V13.00,2013-01-13 19:16:00,
2013-01-13 14:21:00,56.3,43.0,29.61,West,272,3.6,5.8,61,0.00,,,0.00,VWS V13.00,2013-01-13 19:21:00,
2013-01-13 14:26:00,56.3,41.7,29.61,WNW,290,0.0,5.8,58,0.00,,,0.00,VWS V13.00,2013-01-13 19:26:00,
2013-01-13 14:32:00,55.8,43.8,29.61,SE,131,0.0,7.8,64,0.00,,,0.00,VWS V13.00,2013-01-13 19:32:00,
2013-01-13 14:37:00,56.1,44.9,29.61,WSW,249,2.7,7.8,66,0.00,,,0.00,VWS V13.00,2013-01-13 19:37:00,
2013-01-13 14:42:00,56.3,43.5,29.64,WSW,250,0.0,0.0,62,0.00,,,0.00,VWS V13.00,2013-01-13 19:42:00,
2013-01-13 14:47:00,55.4,40.9,29.64,WSW,247,0.0,0.0,58,0.00,,,0.00,VWS V13.00,2013-01-13 19:47:00,
2013-01-13 14:52:00,53.8,38.0,29.64,ENE,68,0.0,0.0,55,0.00,,,0.00,VWS V13.00,2013-01-13 19:52:00,
2013-01-13 14:57:00,53.1,41.2,29.64,North,356,0.0,0.0,64,0.00,,,0.00,VWS V13.00,2013-01-13 19:57:00,
2013-01-13 15:02:00,53.1,42.4,29.64,SSW,209,0.0,0.0,67,0.00,,,0.00,VWS V13.00,2013-01-13 20:02:00,
2013-01-13 15:07:00,53.2,42.2,29.64,SE,133,0.0,2.7,66,0.00,,,0.00,VWS V13.00,2013-01-13 20:07:00,
2013-01-13 15:12:00,53.6,44.4,29.64,NE,38,0.0,3.1,71,0.00,,,0.00,VWS V13.00,2013-01-13 20:12:00,
2013-01-13 15:17:00,52.3,41.3,29.64,ENE,76,0.0,3.1,66,0.00,,,0.00,VWS V13.00,2013-01-13 20:17:00,
2013-01-13 15:22:00,52.2,43.8,29.64,SW,224,0.0,0.0,73,0.00,,,0.00,VWS V13.00,2013-01-13 20:22:00,
2013-01-13 15:27:00,52.2,42.7,29.64,South,173,0.0,2.7,70,0.00,,,0.00,VWS V13.00,2013-01-13 20:27:00,
2013-01-13 15:32:00,51.8,43.4,29.64,SSW,200,0.0,2.7,73,0.00,,,0.00,VWS V13.00,2013-01-13 20:32:00,
2013-01-13 15:37:00,51.3,41.8,29.64,NNW,343,0.0,2.7,70,0.00,,,0.00,VWS V13.00,2013-01-13 20:37:00,
2013-01-13 15:42:00,50.2,40.4,29.64,SSW,207,0.0,0.0,69,0.00,,,0.00,VWS V13.00,2013-01-13 20:42:00,
2013-01-13 15:47:00,50.5,42.6,29.64,SSW,192,0.0,0.0,74,0.00,,,0.00,VWS V13.00,2013-01-13 20:47:00,
2013-01-13 15:52:00,50.4,42.0,29.64,NE,35,0.0,0.0,73,0.00,,,0.00,VWS V13.00,2013-01-13 20:52:00,
2013-01-13 15:57:00,50.0,41.3,29.67,SE,131,0.0,0.0,72,0.00,,,0.00,VWS V13.00,2013-01-13 20:57:00,
2013-01-13 16:02:00,49.6,41.0,29.67,East,101,0.0,0.0,72,0.00,,,0.00,VWS V13.00,2013-01-13 21:02:00,
2013-01-13 16:07:00,49.3,40.7,29.67,East,90,0.0,0.0,72,0.00,,,0.00,VWS V13.00,2013-01-13 21:07:00,
2013-01-13 16:12:00,49.1,41.5,29.67,ESE,102,0.0,0.0,75,0.00,,,0.00,VWS V13.00,2013-01-13 21:12:00,
2013-01-13 16:17:00,48.7,41.2,29.67,ENE,67,0.0,0.0,75,0.00,,,0.00,VWS V13.00,2013-01-13 21:17:00,
2013-01-13 16:22:00,49.1,42.5,29.67,ENE,74,0.0,0.0,78,0.00,,,0.00,VWS V13.00,2013-01-13 21:22:00,
2013-01-13 16:27:00,49.8,44.9,29.64,East,86,0.0,3.1,83,0.00,,,0.00,VWS V13.00,2013-01-13 21:27:00,
2013-01-13 16:32:00,50.2,45.2,29.64,SSE,150,0.0,3.1,83,0.00,,,0.00,VWS V13.00,2013-01-13 21:32:00,
2013-01-13 16:37:00,50.7,45.8,29.64,ENE,77,0.0,3.1,83,0.00,,,0.00,VWS V13.00,2013-01-13 21:37:00,
2013-01-13 16:42:00,51.3,46.3,29.67,WNW,290,0.0,3.1,83,0.00,,,0.00,VWS V13.00,2013-01-13 21:42:00,
2013-01-13 16:47:00,51.1,45.1,29.67,WSW,237,0.0,3.6,80,0.00,,,0.00,VWS V13.00,2013-01-13 21:47:00,
2013-01-13 16:52:00,51.6,46.6,29.67,WSW,257,0.0,3.6,83,0.00,,,0.00,VWS V13.00,2013-01-13 21:52:00,
2013-01-13 16:57:00,51.4,44.8,29.67,East,96,0.0,4.0,78,0.00,,,0.00,VWS V13.00,2013-01-13 21:57:00,
2013-01-13 17:02:00,51.1,43.4,29.67,SW,214,0.0,0.0,75,0.00,,,0.00,VWS V13.00,2013-01-13 22:02:00,
2013-01-13 17:07:00,51.3,45.3,29.67,ESE,114,0.0,4.5,80,0.00,,,0.00,VWS V13.00,2013-01-13 22:07:00,
2013-01-13 17:12:00,50.7,44.1,29.67,SW,216,2.7,4.5,78,0.00,,,0.00,VWS V13.00,2013-01-13 22:12:00,
2013-01-13 17:17:00,50.9,44.6,29.67,SE,131,0.0,4.5,79,0.00,,,0.00,VWS V13.00,2013-01-13 22:17:00,
2013-01-13 17:22:00,51.6,46.3,29.67,SSE,160,0.0,0.0,82,0.00,,,0.00,VWS V13.00,2013-01-13 22:22:00,
2013-01-13 17:27:00,52.9,46.9,29.67,West,262,0.0,3.1,80,0.00,,,0.00,VWS V13.00,2013-01-13 22:27:00,
2013-01-13 17:32:00,52.2,43.8,29.67,South,178,0.0,3.1,73,0.00,,,0.00,VWS V13.00,2013-01-13 22:32:00,
2013-01-13 17:37:00,53.2,46.6,29.67,East,83,0.0,0.0,78,0.00,,,0.00,VWS V13.00,2013-01-13 22:37:00,
2013-01-13 17:42:00,53.8,46.0,29.67,SSW,200,0.0,3.1,75,0.00,,,0.00,VWS V13.00,2013-01-13 22:42:00,
2013-01-13 17:47:00,53.4,44.3,29.67,SSW,195,0.0,3.1,71,0.00,,,0.00,VWS V13.00,2013-01-13 22:47:00,
2013-01-13 17:52:00,52.9,44.1,29.67,SSE,159,0.0,3.1,72,0.00,,,0.00,VWS V13.00,2013-01-13 22:52:00,
2013-01-13 17:57:00,51.6,42.9,29.67,West,259,0.0,0.0,72,0.00,,,0.00,VWS V13.00,2013-01-13 22:57:00,
2013-01-13 18:02:00,50.9,41.8,29.67,South,180,0.0,0.0,71,0.00,,,0.00,VWS V13.00,2013-01-13 23:02:00,
2013-01-13 18:07:00,50.5,42.9,29.67,NNE,25,0.0,3.1,75,0.00,,,0.00,VWS V13.00,2013-01-13 23:07:00,
2013-01-13 18:12:00,50.7,44.5,29.67,WSW,253,0.0,3.1,79,0.00,,,0.00,VWS V13.00,2013-01-13 23:12:00,
2013-01-13 18:18:00,52.2,46.2,29.67,West,270,0.0,0.0,80,0.00,,,0.00,VWS V13.00,2013-01-13 23:18:00,
2013-01-13 18:23:00,51.4,44.1,29.67,WSW,253,0.0,3.6,76,0.00,,,0.00,VWS V13.00,2013-01-13 23:23:00,
2013-01-13 18:28:00,51.3,43.6,29.67,SE,131,0.0,3.6,75,0.00,,,0.00,VWS V13.00,2013-01-13 23:28:00,
2013-01-13 18:33:00,51.8,45.5,29.67,WNW,286,0.0,3.6,79,0.00,,,0.00,VWS V13.00,2013-01-13 23:33:00,
2013-01-13 18:38:00,51.4,43.1,29.67,NNE,18,0.0,0.0,73,0.00,,,0.00,VWS V13.00,2013-01-13 23:38:00,
2013-01-13 18:43:00,50.7,42.8,29.67,North,356,0.0,3.1,74,0.00,,,0.00,VWS V13.00,2013-01-13 23:43:00,
2013-01-13 18:48:00,51.8,46.5,29.67,SE,130,0.0,13.0,82,0.00,,,0.00,VWS V13.00,2013-01-13 23:48:00,
2013-01-13 18:53:00,52.7,46.0,29.67,NNE,19,0.0,13.0,78,0.00,,,0.00,VWS V13.00,2013-01-13 23:53:00,
2013-01-13 18:58:00,52.3,44.3,29.67,NNW,335,0.0,0.0,74,0.00,,,0.00,VWS V13.00,2013-01-13 23:58:00,
2013-01-13 19:03:00,50.9,40.7,29.67,ESE,111,0.0,0.0,68,0.00,,,0.00,VWS V13.00,2013-01-14 00:03:00,
2013-01-13 19:08:00,50.4,42.0,29.67,NNW,345,0.0,0.0,73,0.00,,,0.00,VWS V13.00,2013-01-14 00:08:00,
2013-01-13 19:13:00,50.9,44.3,29.67,South,179,0.0,4.9,78,0.00,,,0.00,VWS V13.00,2013-01-14 00:13:00,
2013-01-13 19:18:00,51.3,45.0,29.67,SE,141,0.0,0.0,79,0.00,,,0.00,VWS V13.00,2013-01-14 00:18:00,
2013-01-13 19:23:00,52.0,45.0,29.67,NW,319,0.0,4.9,77,0.00,,,0.00,VWS V13.00,2013-01-14 00:23:00,
2013-01-13 19:28:00,51.3,43.3,29.67,ESE,110,0.0,4.9,74,0.00,,,0.00,VWS V13.00,2013-01-14 00:28:00,
2013-01-13 19:33:00,51.1,42.7,29.67,SSW,205,0.0,7.4,73,0.00,,,0.00,VWS V13.00,2013-01-14 00:33:00,
2013-01-13 19:38:00,50.4,42.0,29.67,East,85,0.0,0.0,73,0.00,,,0.00,VWS V13.00,2013-01-14 00:38:00,
2013-01-13 19:43:00,50.5,43.3,29.67,NNW,338,0.0,5.8,76,0.00,,,0.00,VWS V13.00,2013-01-14 00:43:00,
2013-01-13 19:48:00,51.3,45.0,29.67,NW,314,0.0,5.8,79,0.00,,,0.00,VWS V13.00,2013-01-14 00:48:00,
2013-01-13 19:53:00,51.1,43.4,29.67,West,271,0.0,5.8,75,0.00,,,0.00,VWS V13.00,2013-01-14 00:53:00,
2013-01-13 19:58:00,51.3,45.0,29.67,NNW,333,0.0,0.0,79,0.00,,,0.00,VWS V13.00,2013-01-14 00:58:00,
2013-01-13 20:03:00,50.2,41.5,29.67,North,0,0.0,3.1,72,0.00,,,0.00,VWS V13.00,2013-01-14 01:03:00,
2013-01-13 20:08:00,49.6,42.7,29.67,WNW,303,0.0,6.3,77,0.00,,,0.00,VWS V13.00,2013-01-14 01:08:00,
2013-01-13 20:13:00,49.3,42.4,29.67,East,83,0.0,6.9,77,0.00,,,0.00,VWS V13.00,2013-01-14 01:13:00,
2013-01-13 20:18:00,48.7,41.5,29.67,SE,135,0.0,0.0,76,0.00,,,0.00,VWS V13.00,2013-01-14 01:18:00,
2013-01-13 20:23:00,48.4,41.8,29.67,NNE,21,0.0,2.7,78,0.00,,,0.00,VWS V13.00,2013-01-14 01:23:00,
2013-01-13 20:28:00,48.2,42.3,29.67,North,2,0.0,2.7,80,0.00,,,0.00,VWS V13.00,2013-01-14 01:28:00,
2013-01-13 20:33:00,48.0,42.5,29.67,East,96,0.0,2.7,81,0.00,,,0.00,VWS V13.00,2013-01-14 01:33:00,
2013-01-13 20:38:00,47.8,42.6,29.67,North,351,0.0,0.0,82,0.00,,,0.00,VWS V13.00,2013-01-14 01:38:00,
2013-01-13 20:43:00,48.2,43.3,29.67,North,351,0.0,0.0,83,0.00,,,0.00,VWS V13.00,2013-01-14 01:43:00,
2013-01-13 20:48:00,47.7,42.8,29.67,NNE,18,0.0,0.0,83,0.00,,,0.00,VWS V13.00,2013-01-14 01:48:00,
2013-01-13 20:53:00,47.5,42.6,29.67,NNW,341,0.0,0.0,83,0.00,,,0.00,VWS V13.00,2013-01-14 01:53:00,
2013-01-13 20:58:00,47.1,42.5,29.67,North,356,0.0,0.0,84,0.00,,,0.00,VWS V13.00,2013-01-14 01:58:00,
2013-01-13 21:03:00,46.8,41.9,29.67,NNW,342,0.0,0.0,83,0.00,,,0.00,VWS V13.00,2013-01-14 02:03:00,
2013-01-13 21:08:00,46.4,41.8,29.67,NNW,340,0.0,3.6,84,0.00,,,0.00,VWS V13.00,2013-01-14 02:08:00,
2013-01-13 21:13:00,46.2,41.7,29.67,North,11,0.0,3.6,84,0.00,,,0.00,VWS V13.00,2013-01-14 02:13:00,
2013-01-13 21:18:00,46.9,43.3,29.67,NNW,336,0.0,0.0,87,0.00,,,0.00,VWS V13.00,2013-01-14 02:18:00,
2013-01-13 21:23:00,46.9,43.3,29.67,NE,35,0.0,0.0,87,0.00,,,0.00,VWS V13.00,2013-01-14 02:23:00,
2013-01-13 21:28:00,47.1,43.8,29.67,NNW,336,0.0,0.0,88,0.00,,,0.00,VWS V13.00,2013-01-14 02:28:00,
2013-01-13 21:33:00,46.8,43.1,29.67,NNW,339,0.0,0.0,87,0.00,,,0.00,VWS V13.00,2013-01-14 02:33:00,
2013-01-13 21:39:00,46.8,43.1,29.67,NNE,31,0.0,3.1,87,0.00,,,0.00,VWS V13.00,2013-01-14 02:39:00,
2013-01-13 21:44:00,46.9,43.6,29.67,North,4,0.0,3.1,88,0.00,,,0.00,VWS V13.00,2013-01-14 02:44:00,
2013-01-13 21:49:00,47.1,44.0,29.67,ENE,63,0.0,3.1,89,0.00,,,0.00,VWS V13.00,2013-01-14 02:49:00,
2013-01-13 21:54:00,46.8,43.1,29.67,NE,56,0.0,3.1,87,0.00,,,0.00,VWS V13.00,2013-01-14 02:54:00,
2013-01-13 21:59:00,46.8,43.4,29.67,SE,136,0.0,0.0,88,0.00,,,0.00,VWS V13.00,2013-01-14 02:59:00,
2013-01-13 22:03:00,46.9,43.6,29.67,NNW,336,0.0,0.0,88,0.00,,,0.00,VWS V13.00,2013-01-14 03:03:00,
2013-01-13 22:08:00,47.1,44.0,29.67,NNE,24,0.0,0.0,89,0.00,,,0.00,VWS V13.00,2013-01-14 03:08:00,
2013-01-13 22:13:00,47.3,44.5,29.67,WNW,282,0.0,0.0,90,0.00,,,0.00,VWS V13.00,2013-01-14 03:13:00,
2013-01-13 22:19:00,47.3,44.2,29.67,North,351,0.0,0.0,89,0.00,,,0.00,VWS V13.00,2013-01-14 03:19:00,
2013-01-13 22:24:00,47.3,44.2,29.67,NW,324,0.0,0.0,89,0.00,,,0.00,VWS V13.00,2013-01-14 03:24:00,
2013-01-13 22:29:00,47.1,44.0,29.67,ENE,58,0.0,0.0,89,0.00,,,0.00,VWS V13.00,2013-01-14 03:29:00,
2013-01-13 22:34:00,46.9,43.6,29.67,SE,130,0.0,0.0,88,0.00,,,0.00,VWS V13.00,2013-01-14 03:34:00,
2013-01-13 22:39:00,46.2,42.3,29.67,ENE,71,0.0,0.0,86,0.00,,,0.00,VWS V13.00,2013-01-14 03:39:00,
2013-01-13 22:44:00,46.2,42.3,29.67,West,259,0.0,0.0,86,0.00,,,0.00,VWS V13.00,2013-01-14 03:44:00,
2013-01-13 22:49:00,46.6,43.2,29.67,North,7,0.0,0.0,88,0.00,,,0.00,VWS V13.00,2013-01-14 03:49:00,
2013-01-13 22:54:00,47.1,44.3,29.67,North,9,0.0,0.0,90,0.00,,,0.00,VWS V13.00,2013-01-14 03:54:00,
2013-01-13 22:59:00,47.3,44.8,29.67,North,9,0.0,0.0,91,0.00,,,0.00,VWS V13.00,2013-01-14 03:59:00,
2013-01-13 23:04:00,47.1,44.0,29.67,North,351,0.0,0.0,89,0.00,,,0.00,VWS V13.00,2013-01-14 04:04:00,
2013-01-13 23:09:00,47.1,44.0,29.67,North,4,0.0,0.0,89,0.00,,,0.00,VWS V13.00,2013-01-14 04:09:00,
2013-01-13 23:14:00,47.3,44.2,29.67,North,4,0.0,0.0,89,0.00,,,0.00,VWS V13.00,2013-01-14 04:14:00,
2013-01-13 23:19:00,47.5,44.4,29.67,SE,132,0.0,0.0,89,0.00,,,0.00,VWS V13.00,2013-01-14 04:19:00,
2013-01-13 23:24:00,47.8,45.0,29.67,SSE,159,0.0,0.0,90,0.00,,,0.00,VWS V13.00,2013-01-14 04:24:00,
2013-01-13 23:29:00,47.7,44.6,29.67,SSE,159,0.0,0.0,89,0.00,,,0.00,VWS V13.00,2013-01-14 04:29:00,
2013-01-13 23:34:00,47.3,43.9,29.67,ENE,65,0.0,0.0,88,0.00,,,0.00,VWS V13.00,2013-01-14 04:34:00,
2013-01-13 23:39:00,47.1,43.5,29.67,NNE,29,0.0,0.0,87,0.00,,,0.00,VWS V13.00,2013-01-14 04:39:00,
2013-01-13 23:44:00,47.3,43.6,29.67,NNE,17,0.0,0.0,87,0.00,,,0.00,VWS V13.00,2013-01-14 04:44:00,
2013-01-13 23:49:00,46.9,43.0,29.67,NNE,19,0.0,0.0,86,0.00,,,0.00,VWS V13.00,2013-01-14 04:49:00,
2013-01-13 23:54:00,46.8,42.8,29.67,NNE,29,0.0,0.0,86,0.00,,,0.00,VWS V13.00,2013-01-14 04:54:00,
2013-01-13 23:59:00,46.9,43.3,29.67,WSW,242,0.0,0.0,87,0.00,,,0.00,VWS V13.00,2013-01-14 04:59:00,